FENGYUN 1C DEB

Satellite information

Favourite Embed

Satellite Type and Status

DEBRISIN ORBIT

Key statistics

Satellite FENGYUN 1C DEB at a glance.

Uptime

9714

Days in orbit

Revolutions

≈ 14.1

Per day

Orbit

SSO

Sun Synchronous Orbit

Inclination

98.9

Latest

Satellite identification and parameters

Extended collection of information and parameters for FENGYUN 1C DEB.

Object identification

Identified? True

Debris? True

Object name: FENGYUN 1C DEB

International designator: 1999-025KY

Object number (NORAD): 29974

Object ID (CCSDS): 29974

Country: PEOPLES REPUBLIC OF CHINA (PRC)

Current information (Y/N): Y

RCS size: SMALL

Orbital parameters

Period: 101.778 minutes

Inclination: 98.8934 deg

SMA: 7220.989 km

Apoapsis: 876.681 km

Periapsis: 809.027 km

RAAN: 69.8744 deg

Eccentricy: 0.00468454

Argument of periapsis: 85.1226 deg

Mean anomaly: 69.8617 deg

Mean motion: 14.14841213 rev/day

Mean motion (dot): 0.00003643 rev/day2

B* drag term: 0.001889622 1/REarth

Two-line elements (TLE)

Creation date: Dec. 12, 2025, 3:16 a.m.

Reference frame: TEME

Reference center: EARTH

Epoch: Dec. 11, 2025, 4:43 p.m. UTC

TLE line 0: 0 FENGYUN 1C DEB

TLE line 1: 1 29974U 99025KY 25345.69684479 .00003643 00000-0 18896-2 0 9998

TLE line 2: 2 29974 98.8934 69.8744 0046845 85.1226 69.8617 14.14841213969104

Live tracking on map

Real-time ground track for satellite FENGYUN 1C DEB.

In-orbit conjunctions

A list of the most updated potential collisions computed for object FENGYUN 1C DEB.

Target Orbit TCA Probability of collision Miss distance Type
SL-16 DEB LEO 2025-09-09 14:25:58 0.000109581 216.0 (m) DEBRIS
CZ-6A DEB SSO 2024-11-15 15:46:38 0.0001496023 612.0 (m) DEBRIS
METEOR 1-5 DEB LEO 2024-09-04 16:03:29 0.0008808097 37.0 (m) DEBRIS

Associated space launch

Chinese polar orbiting meteorological satellite

FENGYUN 1C DEB was lifted into orbit during the mission ‘Long March 4B | Feng Yun 1C’, on board a Long March 4B space rocket.

The launch took place on May 10, 1999, 1:33 a.m. from Launch Complex 7.

For more information about the launch, click the button.

Launch to space Long March 4B | Feng Yun 1C
Long March 4B | Feng Yun 1C

Agency: N/A

Status: Launch Successful

Launch date: May 10, 1999, 1:33 a.m. UTC

Rocket: Long March 4B

Launch pad: Launch Complex 7

Location: Taiyuan Satellite Launch Center, People's Republic of China

...

Latest news about this satellite

There are no fresh news available about this satellite. Check back as we update our databases every day.


Newsletter sign-up

Weekly statistics, charts and insights to help you stay on top of the space industry.